This is the latest recevied weather packets stored in our database for station/object KG5TTF. If no packets are shown the sender has not sent any weather packets the latest 10 day(s).
| Time | Temp. | Humidity | Pressure | Rain* | Wind** | Luminosity | Snow |
|---|---|---|---|---|---|---|---|
| 1777511294 | 7.22° C | 76% | 1022.7 hPa | 0 mm | - | 41 W/m² | - |
| 1777510989 | 7.22° C | 76% | 1022.7 hPa | 0 mm | - | 43 W/m² | - |
| 1777510686 | 7.22° C | 78% | 1022.7 hPa | 0 mm | - | 36 W/m² | - |
| 1777510382 | 7.22° C | 78% | 1022.6 hPa | 0 mm | - | 39 W/m² | - |
| 1777510078 | 7.22° C | 79% | 1022.7 hPa | 0 mm | - | 51 W/m² | - |
| 1777509775 | 7.22° C | 80% | 1022.5 hPa | 0 mm | - | 61 W/m² | - |
| 1777509471 | 6.67° C | 79% | 1022.6 hPa | 0 mm | - | 59 W/m² | - |
| 1777509169 | 7.22° C | 79% | 1022.6 hPa | 0 mm | - | 49 W/m² | - |
| 1777508866 | 7.22° C | 79% | 1022.6 hPa | 0 mm | - | 62 W/m² | - |
| 1777508562 | 7.22° C | 78% | 1022.6 hPa | 0 mm | - | 66 W/m² | - |
| 1777508259 | 7.22° C | 77% | 1022.5 hPa | 0 mm | - | 76 W/m² | - |
| 1777507957 | 7.22° C | 77% | 1022.4 hPa | 0 mm | - | 95 W/m² | - |
| 1777507653 | 7.78° C | 76% | 1022.2 hPa | 0 mm | - | 89 W/m² | - |
| 1777507350 | 7.78° C | 74% | 1022.2 hPa | 0 mm | - | 121 W/m² | - |
| 1777507048 | 7.78° C | 74% | 1022.2 hPa | 0 mm | - | 111 W/m² | - |
| 1777506745 | 7.78° C | 78% | 1022.1 hPa | 0 mm | - | 140 W/m² | - |
| 1777506441 | 7.22° C | 80% | 1022.4 hPa | 0 mm | - | 216 W/m² | - |
| 1777506137 | 6.11° C | 82% | 1022.2 hPa | 0 mm | - | 229 W/m² | - |
| 1777505833 | 6.11° C | 83% | 1022.2 hPa | 0 mm | - | 109 W/m² | - |
| 1777505529 | 6.11° C | 82% | 1022.4 hPa | 0 mm | - | 104 W/m² | - |
| 1777505226 | 6.11° C | 83% | 1022.2 hPa | 0 mm | - | 127 W/m² | - |
| 1777504923 | 6.11° C | 82% | 1022.6 hPa | 0 mm | - | 132 W/m² | - |
| 1777504620 | 6.11° C | 83% | 1022.1 hPa | 0 mm | - | 140 W/m² | - |
| 1777504316 | 6.11° C | 84% | 1022.2 hPa | 0 mm | - | 191 W/m² | - |
| 1777504011 | 6.67° C | 82% | 1022.1 hPa | 0 mm | - | 171 W/m² | - |
* Rain latest hour (hover to see other rain measurements)
** Current wind speed in m/s (hover to see current wind gust speed)